Weather History for KO22 - April, 2014

Change the Weather History Date:

Thursday, April 17, 2014

  Actual Average (KMOD) Record (KMOD)
Temperature  
Mean Temperature 62 °F -  
Max Temperature 77 °F 75 °F 92 °F (1954)
Min Temperature 46 °F 49 °F 37 °F (1933)
Degree Days  
Heating Degree Days 4 4  
Month to date heating degree days 89  
Since 1 July heating degree days 2094  
Cooling Degree Days 0 1  
Month to date cooling degree days 13  
Year to date cooling degree days 18  
Growing Degree Days 12 (Base 50)    
Moisture  
Dew Point 46 °F    
Average Humidity 62    
Maximum Humidity 93    
Minimum Humidity 31    
Precipitation  
Precipitation 0.00 in 0.03 in 1.63 in (2000)
Month to date precipitation 0.61  
Year to date precipitation 7.64  
Snow  
Snow 0.00 in - - ()
Month to date snowfall  
Since 1 July snowfall  
Snow Depth -    
Sea Level Pressure  
Sea Level Pressure 29.85 in    
Wind  
Wind Speed 2 mph (SW)    
Max Wind Speed 9 mph    
Max Gust Speed -    
Visibility 10 miles    
Events      
T = Trace of Precipitation, MM = Missing Value Source: NWS Daily Summary

Daily Weather History Graph

Daily Weather History Graph

Search for Another Location

Airport or City:

Trip Planner

Search our weather history database for the weather conditions in past years. The results will help you decide how hot, cold, wet, or windy it might be!

Date:

Astronomy

Apr. 17, 2014 Rise Set
Actual Time 6:23 AM PDT 7:39 PM PDT
Civil Twilight 5:55 AM PDT 8:07 PM PDT
Nautical Twilight 5:23 AM PDT 8:39 PM PDT
Astronomical Twilight 4:49 AM PDT 9:14 PM PDT
Moon 10:28 PM PDT (4/17) 8:00 AM PDT (4/17)
Length of Visible Light 14h 11m
Length of Day
13h 16m
Waning Gibbous, 93% of the Moon is Illuminated
Apr 17
Waning Gibbous
Apr 22
Last Quarter
Apr 28
New
May 6
First Quarter
May 14
Full

Hourly Weather History & Observations

Time (PDT) Temp. Dew Point Humidity Pressure Visibility Wind Dir Wind Speed Gust Speed Precip Events Conditions
12:15 AM 50.0 °F 44.6 °F 82% 29.87 in 10.0 mi Calm Calm - N/A   Clear
12:35 AM 48.2 °F 44.6 °F 87% 29.87 in 10.0 mi Calm Calm - N/A   Clear
12:55 AM 48.2 °F 44.6 °F 87% 29.86 in 10.0 mi Calm Calm - N/A   Clear
1:15 AM 48.2 °F 44.6 °F 87% 29.85 in 10.0 mi NE 3.5 mph - N/A   Clear
1:35 AM 48.2 °F 44.6 °F 87% 29.85 in 10.0 mi Calm Calm - N/A   Clear
1:55 AM 48.2 °F 44.6 °F 87% 29.85 in 10.0 mi Calm Calm - N/A   Clear
2:15 AM 48.2 °F 44.6 °F 87% 29.84 in 10.0 mi Calm Calm - N/A   Clear
2:35 AM 48.2 °F 44.6 °F 87% 29.84 in 10.0 mi Calm Calm - N/A   Clear
2:55 AM 48.2 °F 44.6 °F 87% 29.84 in 10.0 mi Calm Calm - N/A   Clear
3:15 AM 48.2 °F 44.6 °F 87% 29.83 in 10.0 mi Calm Calm - N/A   Clear
3:35 AM 48.2 °F 44.6 °F 87% 29.83 in 10.0 mi Calm Calm - N/A   Clear
3:55 AM 46.4 °F 44.6 °F 93% 29.83 in 10.0 mi Calm Calm - N/A   Clear
4:15 AM 46.4 °F 44.6 °F 93% 29.83 in 10.0 mi Calm Calm - N/A   Clear
4:35 AM 46.4 °F 44.6 °F 93% 29.83 in 10.0 mi Calm Calm - N/A   Clear
4:55 AM 46.4 °F 44.6 °F 93% 29.83 in 10.0 mi Calm Calm - N/A   Clear
5:15 AM 46.4 °F 44.6 °F 93% 29.82 in 10.0 mi Calm Calm - N/A   Clear
5:35 AM 46.4 °F 44.6 °F 93% 29.82 in 10.0 mi Calm Calm - N/A   Clear
5:55 AM 46.4 °F 44.6 °F 93% 29.82 in 10.0 mi Calm Calm - N/A   Clear
6:15 AM 46.4 °F 44.6 °F 93% 29.82 in 10.0 mi Calm Calm - N/A   Clear
6:35 AM 46.4 °F 44.6 °F 93% 29.83 in 10.0 mi Calm Calm - N/A   Clear
6:55 AM 48.2 °F 44.6 °F 87% 29.84 in 10.0 mi Calm Calm - N/A   Clear
7:15 AM 50.0 °F 46.4 °F 87% 29.84 in 10.0 mi Calm Calm - N/A   Clear
7:35 AM 55.4 °F 48.2 °F 77% 29.85 in 10.0 mi Calm Calm - N/A   Clear
7:55 AM 59.0 °F 50.0 °F 72% 29.86 in 10.0 mi Calm Calm - N/A   Clear
8:15 AM 62.6 °F 48.2 °F 59% 29.86 in 10.0 mi Calm Calm - N/A   Clear
8:55 AM 66.2 °F 44.6 °F 46% 29.87 in 10.0 mi South 3.5 mph - N/A   Clear
9:15 AM 68.0 °F 46.4 °F 46% 29.87 in 10.0 mi SSW 3.5 mph - N/A   Clear
9:55 AM 71.6 °F 46.4 °F 41% 29.87 in 10.0 mi SE 4.6 mph - N/A   Clear
10:15 AM 71.6 °F 44.6 °F 38% 29.87 in 10.0 mi SSE 5.8 mph - N/A   Clear
10:35 AM 73.4 °F 42.8 °F 33% 29.88 in 10.0 mi South 6.9 mph - N/A   Clear
10:55 AM 73.4 °F 41.0 °F 31% 29.88 in 10.0 mi South 6.9 mph - N/A   Clear
11:15 AM 75.2 °F 46.4 °F 36% 29.88 in 10.0 mi South 6.9 mph - N/A   Clear
11:35 AM 73.4 °F 46.4 °F 38% 29.89 in 10.0 mi South 6.9 mph - N/A   Clear
11:55 AM 73.4 °F 44.6 °F 36% 29.88 in 10.0 mi SSW 5.8 mph - N/A   Clear
12:15 PM 73.4 °F 46.4 °F 38% 29.89 in 10.0 mi SW 8.1 mph - N/A   Clear
12:35 PM 73.4 °F 46.4 °F 38% 29.88 in 10.0 mi SSW 5.8 mph - N/A   Clear
12:55 PM 73.4 °F 48.2 °F 41% 29.88 in 10.0 mi South 5.8 mph - N/A   Clear
1:15 PM 73.4 °F 48.2 °F 41% 29.88 in 10.0 mi SSW 4.6 mph - N/A   Clear
1:35 PM 73.4 °F 48.2 °F 41% 29.88 in 10.0 mi SSW 3.5 mph - N/A   Clear
1:55 PM 73.4 °F 48.2 °F 41% 29.87 in 10.0 mi SSW 4.6 mph - N/A   Clear
2:15 PM 75.2 °F 44.6 °F 34% 29.87 in 10.0 mi South 5.8 mph - N/A   Clear
2:35 PM 75.2 °F 46.4 °F 36% 29.86 in 10.0 mi SW 4.6 mph - N/A   Clear
2:55 PM 75.2 °F 44.6 °F 34% 29.85 in 10.0 mi South 4.6 mph - N/A   Clear
3:15 PM 77.0 °F 46.4 °F 34% 29.84 in 10.0 mi SW 5.8 mph - N/A   Clear
3:35 PM 77.0 °F 44.6 °F 32% 29.84 in 10.0 mi Calm Calm - N/A   Clear
3:55 PM 77.0 °F 44.6 °F 32% 29.83 in 10.0 mi West 9.2 mph - N/A   Clear
4:15 PM 75.2 °F 44.6 °F 34% 29.83 in 10.0 mi WSW 5.8 mph - N/A   Clear
4:55 PM 75.2 °F 44.6 °F 34% 29.83 in 10.0 mi WSW 4.6 mph - N/A   Clear
5:15 PM 73.4 °F 44.6 °F 36% 29.83 in 10.0 mi SW 5.8 mph - N/A   Clear
5:35 PM 73.4 °F 44.6 °F 36% 29.83 in 10.0 mi WSW 5.8 mph - N/A   Clear
5:55 PM 73.4 °F 46.4 °F 38% 29.83 in 10.0 mi West 5.8 mph - N/A   Clear
6:15 PM 71.6 °F 46.4 °F 41% 29.83 in 10.0 mi West 4.6 mph - N/A   Clear
6:35 PM 71.6 °F 44.6 °F 38% 29.83 in 10.0 mi WSW 4.6 mph - N/A   Clear
6:55 PM 69.8 °F 46.4 °F 43% 29.83 in 10.0 mi West 4.6 mph - N/A   Clear
7:15 PM 68.0 °F 46.4 °F 46% 29.83 in 10.0 mi Calm Calm - N/A   Clear
7:35 PM 66.2 °F 50.0 °F 56% 29.83 in 10.0 mi NW 4.6 mph - N/A   Clear
7:55 PM 64.4 °F 50.0 °F 59% 29.84 in 10.0 mi NW 4.6 mph - N/A   Clear
8:15 PM 64.4 °F 50.0 °F 59% 29.85 in 10.0 mi Calm Calm - N/A   Clear
8:35 PM 62.6 °F 50.0 °F 63% 29.85 in 10.0 mi WNW 3.5 mph - N/A   Clear
8:55 PM 60.8 °F 50.0 °F 68% 29.86 in 10.0 mi Calm Calm - N/A   Clear
9:15 PM 59.0 °F 50.0 °F 72% 29.86 in 10.0 mi Calm Calm - N/A   Clear
10:15 PM 55.4 °F 50.0 °F 82% 29.85 in 10.0 mi Calm Calm - N/A   Clear
10:35 PM 55.4 °F 50.0 °F 82% 29.85 in 10.0 mi Calm Calm - N/A   Clear
10:55 PM 55.4 °F 50.0 °F 82% 29.85 in 10.0 mi Calm Calm - N/A   Clear
11:15 PM 55.4 °F 48.2 °F 77% 29.85 in 10.0 mi Calm Calm - N/A   Scattered Clouds
11:35 PM 55.4 °F 48.2 °F 77% 29.85 in 10.0 mi Calm Calm - N/A   Partly Cloudy
11:55 PM 53.6 °F 48.2 °F 82% 29.85 in 10.0 mi Calm Calm - N/A   Clear